TimeBST,TemperatureF,Dew PointF,Humidity,Sea Level PressureIn,VisibilityMPH,Wind Direction,Wind SpeedMPH,Gust SpeedMPH,PrecipitationIn,Events,Conditions,WindDirDegrees,DateUTC
12:50 AM,59,59,99,29.90,0,South,9.2,,,Fog,Fog,170,2012-10-07 23:50:00
3:50 AM,59,59,100,29.86,0,SW,6.9,,,Fog,Fog,230,2012-10-08 02:50:00
6:50 AM,59,59,100,29.87,0,WNW,5.8,,,Fog,Fog,290,2012-10-08 05:50:00
6:50 AM,59.0,59.0,100,29.86,0.2,WNW,5.8,-,N/A,Fog,Fog,290,2012-10-08 05:50:00
7:20 AM,59.0,59.0,100,29.86,0.4,West,5.8,-,N/A,Fog,Fog,260,2012-10-08 06:20:00
7:50 AM,59.0,59.0,100,29.86,0.1,WSW,5.8,-,N/A,Fog,Fog,250,2012-10-08 06:50:00
8:20 AM,59.0,59.0,100,29.86,0.1,WNW,5.8,-,N/A,Fog,Fog,290,2012-10-08 07:20:00
8:50 AM,59.0,59.0,100,29.86,0.1,West,6.9,-,N/A,Fog,Fog,260,2012-10-08 07:50:00
9:20 AM,59.0,59.0,100,29.89,0.0,SW,8.1,-,N/A,Fog,Fog,230,2012-10-08 08:20:00
9:50 AM,60,60,98,29.89,0,WSW,9.2,,,Rain,Light Drizzle,240,2012-10-08 08:50:00
9:50 AM,59.0,59.0,100,29.89,0.0,WSW,9.2,-,N/A,Fog,Fog,240,2012-10-08 08:50:00
10:20 AM,62.6,60.8,94,29.89,2.5,WSW,5.8,-,N/A,Fog,Fog,240,2012-10-08 09:20:00
10:50 AM,62.6,60.8,94,29.89,1.9,SW,9.2,-,N/A,Fog,Mostly Cloudy,230,2012-10-08 09:50:00
11:20 AM,60.8,60.8,100,29.89,0.1,SW,10.4,-,N/A,Fog,Fog,230,2012-10-08 10:20:00
11:50 AM,60.8,60.8,100,29.89,0.1,SW,6.9,-,N/A,Fog,Fog,220,2012-10-08 10:50:00
12:20 PM,60.8,60.8,100,29.89,0.1,SW,9.2,-,N/A,Fog,Fog,230,2012-10-08 11:20:00
12:50 PM,61,61,98,29.90,0,WSW,8.1,,,Fog,Fog,240,2012-10-08 11:50:00
12:50 PM,60.8,60.8,100,29.89,0.0,WSW,8.1,-,N/A,Fog,Fog,240,2012-10-08 11:50:00
1:20 PM,60.8,60.8,100,29.89,0.2,WSW,6.9,-,N/A,Fog,Fog,250,2012-10-08 12:20:00
1:50 PM,62.6,62.6,100,29.89,0.2,West,8.1,-,N/A,Fog,Fog,260,2012-10-08 12:50:00
2:20 PM,60.8,60.8,100,29.89,0.1,West,5.8,-,N/A,Fog,Fog,260,2012-10-08 13:20:00
2:50 PM,62.6,62.6,100,29.86,0.2,WSW,5.8,-,N/A,Fog,Fog,250,2012-10-08 13:50:00
3:20 PM,60.8,60.8,100,29.89,0.1,West,5.8,-,N/A,Fog,Fog,270,2012-10-08 14:20:00
3:50 PM,60,59,96,29.88,0,SSW,4.6,,,Rain,Rain Showers,210,2012-10-08 14:50:00
3:50 PM,59.0,59.0,100,29.86,0.1,SSW,5.8,-,N/A,Fog-Rain,Rain,210,2012-10-08 14:50:00
6:50 PM,60,60,100,29.89,5,SW,1.2,,,Rain,Rain,220,2012-10-08 17:50:00
9:50 PM,60,60,100,29.91,4,WNW,1.2,,,Rain,Rain Showers,300,2012-10-08 20:50:00